TimeCDT,TemperatureF,Dew PointF,Humidity,Sea Level PressureIn,VisibilityMPH,Wind Direction,Wind SpeedMPH,Gust SpeedMPH,PrecipitationIn,Events,Conditions,WindDirDegrees,DateUTC
12:15 AM,30.2,28.4,93,29.75,1.2,North,11.5,17.3,N/A,Snow,Light Snow,360,2013-03-11 05:15:00
12:35 AM,30.2,28.4,93,29.75,1.8,North,11.5,18.4,N/A,Snow,Light Snow,10,2013-03-11 05:35:00
1:15 AM,30.2,26.6,86,29.75,1.5,North,9.2,17.3,N/A,Snow,Light Snow,360,2013-03-11 06:15:00
2:15 AM,28.4,26.6,93,29.74,2.0,North,9.2,18.4,N/A,Snow,Light Snow,360,2013-03-11 07:15:00
2:35 AM,28.4,26.6,93,29.74,2.5,North,9.2,18.4,N/A,Snow,Light Snow,360,2013-03-11 07:35:00
2:56 AM,28.4,26.6,93,29.74,2.5,North,9.2,17.3,N/A,Snow,Light Snow,360,2013-03-11 07:56:00
3:15 AM,28.4,26.6,93,29.73,3.0,North,9.2,18.4,N/A,Snow,Light Snow,350,2013-03-11 08:15:00
3:36 AM,28.4,26.6,93,29.72,3.0,North,10.4,16.1,N/A,Snow,Light Snow,350,2013-03-11 08:36:00
3:55 AM,28.4,26.6,93,29.72,5.0,North,9.2,19.6,N/A,Snow,Light Snow,350,2013-03-11 08:55:00
4:15 AM,28.4,26.6,93,29.71,7.0,North,10.4,19.6,N/A,Snow,Light Snow,350,2013-03-11 09:15:00
4:36 AM,28.4,24.8,86,29.71,2.5,North,10.4,17.3,N/A,Snow,Light Snow,350,2013-03-11 09:36:00
4:55 AM,28.4,24.8,86,29.70,1.2,North,11.5,18.4,0.01,Snow,Light Snow,350,2013-03-11 09:55:00
5:15 AM,28.4,24.8,86,29.71,3.0,North,10.4,17.3,N/A,Snow,Light Snow,350,2013-03-11 10:15:00
5:36 AM,26.6,24.8,93,29.71,1.8,North,11.5,18.4,N/A,Snow,Light Snow,350,2013-03-11 10:36:00
5:55 AM,26.6,24.8,93,29.71,1.2,North,9.2,17.3,N/A,Snow,Light Snow,350,2013-03-11 10:55:00
6:15 AM,26.6,24.8,93,29.71,1.0,North,11.5,18.4,N/A,Snow,Snow,350,2013-03-11 11:15:00
6:36 AM,26.6,24.8,93,29.72,1.0,North,12.7,19.6,N/A,Snow,Snow,350,2013-03-11 11:36:00
6:55 AM,26.6,24.8,93,29.72,1.2,NNW,11.5,20.7,N/A,Snow,Light Snow,340,2013-03-11 11:55:00
7:15 AM,26.6,24.8,93,29.72,1.0,NNW,13.8,19.6,0.01,Snow,Snow,340,2013-03-11 12:15:00
7:36 AM,26.6,24.8,93,29.72,1.5,NNW,13.8,18.4,0.01,Snow,Light Snow,340,2013-03-11 12:36:00
7:55 AM,26.6,24.8,93,29.72,1.2,NNW,12.7,-,0.01,Snow,Light Snow,340,2013-03-11 12:55:00
8:15 AM,26.6,24.8,93,29.73,1.0,NNW,12.7,19.6,N/A,Snow,Light Snow,330,2013-03-11 13:15:00
8:36 AM,26.6,23.0,86,29.73,5.0,NNW,12.7,17.3,N/A,Snow,Light Snow,330,2013-03-11 13:36:00
8:55 AM,26.6,23.0,86,29.73,7.0,NNW,12.7,19.6,N/A,Snow,Light Snow,330,2013-03-11 13:55:00
9:15 AM,26.6,23.0,86,29.73,10.0,NNW,15.0,-,N/A,,Overcast,340,2013-03-11 14:15:00
9:35 AM,26.6,23.0,86,29.73,7.0,NNW,16.1,-,N/A,,Overcast,330,2013-03-11 14:35:00
9:55 AM,26.6,23.0,86,29.74,10.0,NW,11.5,-,N/A,,Overcast,320,2013-03-11 14:55:00
10:15 AM,26.6,23.0,86,29.73,7.0,NW,12.7,-,N/A,,Overcast,320,2013-03-11 15:15:00
10:35 AM,26.6,23.0,86,29.73,7.0,NW,12.7,19.6,N/A,,Overcast,320,2013-03-11 15:35:00
10:55 AM,26.6,21.2,80,29.72,10.0,NW,16.1,20.7,N/A,,Overcast,320,2013-03-11 15:55:00
11:15 AM,26.6,23.0,86,29.72,10.0,NW,16.1,23.0,N/A,,Overcast,320,2013-03-11 16:15:00
11:35 AM,26.6,21.2,80,29.72,10.0,NW,17.3,21.9,N/A,,Overcast,320,2013-03-11 16:35:00
11:55 AM,26.6,21.2,80,29.71,10.0,NNW,18.4,24.2,N/A,,Overcast,330,2013-03-11 16:55:00
12:15 PM,28.4,21.2,74,29.71,10.0,NW,17.3,24.2,N/A,,Overcast,320,2013-03-11 17:15:00
12:35 PM,28.4,21.2,74,29.71,10.0,NW,16.1,21.9,N/A,,Overcast,310,2013-03-11 17:35:00
12:55 PM,28.4,21.2,74,29.72,10.0,NW,17.3,23.0,N/A,,Overcast,320,2013-03-11 17:55:00
1:15 PM,26.6,21.2,80,29.72,10.0,NW,19.6,24.2,N/A,,Overcast,320,2013-03-11 18:15:00
1:35 PM,26.6,21.2,80,29.72,10.0,NW,16.1,23.0,N/A,,Overcast,320,2013-03-11 18:35:00
1:56 PM,28.4,21.2,74,29.71,10.0,NNW,15.0,21.9,N/A,,Overcast,330,2013-03-11 18:56:00
2:15 PM,28.4,21.2,74,29.71,10.0,NW,15.0,19.6,N/A,,Overcast,310,2013-03-11 19:15:00
2:35 PM,28.4,21.2,74,29.71,10.0,NW,10.4,21.9,N/A,,Overcast,320,2013-03-11 19:35:00
2:56 PM,28.4,21.2,74,29.71,10.0,NW,15.0,20.7,N/A,,Overcast,320,2013-03-11 19:56:00
3:15 PM,28.4,21.2,74,29.71,10.0,NW,16.1,24.2,N/A,,Overcast,310,2013-03-11 20:15:00
3:35 PM,28.4,21.2,74,29.72,10.0,NW,15.0,24.2,N/A,,Overcast,320,2013-03-11 20:35:00
3:55 PM,28.4,21.2,74,29.72,10.0,WNW,17.3,21.9,N/A,,Overcast,300,2013-03-11 20:55:00
4:15 PM,26.6,21.2,80,29.73,10.0,WNW,16.1,-,N/A,,Overcast,300,2013-03-11 21:15:00
4:36 PM,28.4,21.2,74,29.73,10.0,WNW,19.6,23.0,N/A,,Overcast,300,2013-03-11 21:36:00
4:55 PM,28.4,21.2,74,29.73,10.0,WNW,15.0,19.6,N/A,,Overcast,300,2013-03-11 21:55:00
5:15 PM,26.6,21.2,80,29.74,10.0,NW,15.0,21.9,N/A,,Overcast,310,2013-03-11 22:15:00
5:36 PM,26.6,21.2,80,29.74,10.0,WNW,11.5,-,N/A,,Overcast,300,2013-03-11 22:36:00
5:55 PM,26.6,21.2,80,29.75,10.0,WNW,16.1,-,N/A,,Overcast,300,2013-03-11 22:55:00
6:15 PM,26.6,21.2,80,29.75,10.0,WNW,12.7,-,N/A,,Overcast,300,2013-03-11 23:15:00
6:36 PM,26.6,21.2,80,29.76,10.0,WNW,12.7,23.0,N/A,,Overcast,300,2013-03-11 23:36:00
6:55 PM,26.6,19.4,74,29.76,10.0,WNW,15.0,19.6,N/A,,Overcast,300,2013-03-11 23:55:00
7:15 PM,24.8,19.4,80,29.76,10.0,WNW,13.8,-,N/A,,Overcast,300,2013-03-12 00:15:00
7:36 PM,24.8,19.4,80,29.77,10.0,WNW,12.7,17.3,N/A,,Overcast,300,2013-03-12 00:36:00
7:55 PM,24.8,19.4,80,29.78,10.0,WNW,11.5,18.4,N/A,,Overcast,300,2013-03-12 00:55:00
8:15 PM,24.8,17.6,74,29.79,10.0,WNW,12.7,-,N/A,,Overcast,300,2013-03-12 01:15:00
8:36 PM,24.8,17.6,74,29.80,10.0,WNW,11.5,17.3,N/A,,Overcast,300,2013-03-12 01:36:00
8:55 PM,24.8,17.6,74,29.80,10.0,WNW,11.5,-,N/A,,Overcast,300,2013-03-12 01:55:00
9:15 PM,24.8,17.6,74,29.81,10.0,WNW,12.7,-,N/A,,Overcast,290,2013-03-12 02:15:00
9:36 PM,23.0,17.6,80,29.82,10.0,WNW,12.7,-,N/A,,Overcast,290,2013-03-12 02:36:00
9:55 PM,23.0,17.6,80,29.82,10.0,WNW,11.5,-,N/A,,Mostly Cloudy,290,2013-03-12 02:55:00
10:15 PM,21.2,15.8,80,29.83,10.0,WNW,10.4,-,N/A,,Scattered Clouds,290,2013-03-12 03:15:00
10:35 PM,21.2,15.8,80,29.84,10.0,West,9.2,-,N/A,,Scattered Clouds,280,2013-03-12 03:35:00
10:55 PM,21.2,15.8,80,29.84,10.0,WNW,10.4,18.4,N/A,,Scattered Clouds,290,2013-03-12 03:55:00
11:16 PM,19.4,14.0,80,29.84,10.0,WNW,10.4,-,N/A,,Scattered Clouds,290,2013-03-12 04:16:00
11:35 PM,19.4,15.8,86,29.84,10.0,West,8.1,-,N/A,,Scattered Clouds,280,2013-03-12 04:35:00
11:55 PM,21.2,15.8,80,29.84,10.0,West,6.9,-,N/A,,Mostly Cloudy,280,2013-03-12 04:55:00